Weather History for KRBG - May, 2013

Change the Weather History Date:

Friday, May 3, 2013

  Actual Average Record
Temperature  
Mean Temperature 64 °F 56 °F  
Max Temperature 82 °F 67 °F 94 °F (1992)
Min Temperature 46 °F 45 °F 36 °F (2001)
Degree Days  
Heating Degree Days 1 9  
Month to date heating degree days 13 28  
Since 1 July heating degree days 3461 3792  
Cooling Degree Days 0 0  
Month to date cooling degree days 0 0  
Year to date cooling degree days 2 1  
Growing Degree Days 14 (Base 50)    
Moisture  
Dew Point 40 °F    
Average Humidity 46    
Maximum Humidity 76    
Minimum Humidity 16    
Precipitation  
Precipitation 0.00 in 0.08 in 0.79 in (1936)
Month to date precipitation 0.00 0.25  
Year to date precipitation 6.16 15.61  
Sea Level Pressure  
Sea Level Pressure 30.17 in    
Wind  
Wind Speed 6 mph (North)    
Max Wind Speed 21 mph    
Max Gust Speed 25 mph    
Visibility 10 miles    
Events      
T = Trace of Precipitation, MM = Missing Value Source: NWS Daily Summary

Daily Weather History Graph

Daily Weather History Graph

Search for Another Location

Airport or City:

Trip Planner

Search our weather history database for the weather conditions in past years. The results will help you decide how hot, cold, wet, or windy it might be!

Date:

Astronomy

May. 03, 2013 Rise Set
Actual Time 6:03 AM PDT 8:17 PM PDT
Civil Twilight 5:32 AM PDT 8:49 PM PDT
Nautical Twilight 4:53 AM PDT 9:28 PM PDT
Astronomical Twilight 4:10 AM PDT 10:11 PM PDT
Moon 2:41 AM PDT (5/3) 2:08 PM PDT (5/3)
Length of Visible Light 15h 17m
Length of Day
14h 14m
Waning Crescent, 36% of the Moon is Illuminated
May 3
Waning Crescent
May 9
New
May 17
First Quarter
May 24
Full
May 31
Last Quarter

Hourly Weather History & Observations

Time (PDT) Temp. Dew Point Humidity Pressure Visibility Wind Dir Wind Speed Gust Speed Precip Events Conditions
12:53 AM 55.9 °F 41.0 °F 57% 30.24 in 10.0 mi Calm Calm - N/A   Clear
1:53 AM 53.1 °F 41.0 °F 64% 30.24 in 10.0 mi Calm Calm - N/A   Clear
2:53 AM 52.0 °F 41.0 °F 66% 30.24 in 10.0 mi Calm Calm - N/A   Clear
3:53 AM 50.0 °F 39.9 °F 68% 30.25 in 10.0 mi Calm Calm - N/A   Clear
4:53 AM 48.0 °F 39.9 °F 74% 30.25 in 10.0 mi Calm Calm - N/A   Clear
5:53 AM 46.9 °F 39.9 °F 77% 30.25 in 10.0 mi Calm Calm - N/A   Clear
6:53 AM 46.9 °F 39.9 °F 77% 30.26 in 10.0 mi Calm Calm - N/A   Clear
7:53 AM 52.0 °F 41.0 °F 66% 30.27 in 10.0 mi Calm Calm - N/A   Clear
8:53 AM 59.0 °F 41.0 °F 51% 30.26 in 10.0 mi North 8.1 mph - N/A   Clear
9:53 AM 63.0 °F 39.0 °F 41% 30.25 in 10.0 mi North 10.4 mph - N/A   Clear
10:53 AM 66.0 °F 39.0 °F 37% 30.24 in 10.0 mi Variable 4.6 mph - N/A   Clear
11:53 AM 70.0 °F 39.9 °F 33% 30.22 in 10.0 mi NNE 10.4 mph - N/A   Clear
12:53 PM 73.0 °F 41.0 °F 31% 30.19 in 10.0 mi NNE 10.4 mph - N/A   Clear
1:53 PM 77.0 °F 39.0 °F 25% 30.16 in 10.0 mi NNE 11.5 mph - N/A   Clear
2:53 PM 80.1 °F 30.9 °F 17% 30.12 in 10.0 mi North 13.8 mph 20.7 mph N/A   Clear
3:53 PM 81.0 °F 33.1 °F 18% 30.10 in 10.0 mi North 10.4 mph 20.7 mph N/A   Clear
4:53 PM 81.0 °F 34.0 °F 18% 30.08 in 10.0 mi North 15.0 mph 21.9 mph N/A   Clear
5:53 PM 81.0 °F 35.1 °F 19% 30.07 in 10.0 mi North 17.3 mph 25.3 mph N/A   Clear
6:53 PM 78.1 °F 37.9 °F 24% 30.06 in 10.0 mi North 10.4 mph 21.9 mph N/A   Clear
7:53 PM 75.0 °F 39.9 °F 28% 30.06 in 10.0 mi North 9.2 mph - N/A   Clear
8:53 PM 73.0 °F 42.1 °F 33% 30.07 in 10.0 mi NNW 5.8 mph - N/A   Clear
9:53 PM 69.1 °F 44.1 °F 40% 30.09 in 10.0 mi Calm Calm - N/A   Clear
10:53 PM 63.0 °F 45.0 °F 52% 30.09 in 10.0 mi Calm Calm - N/A   Clear
11:53 PM 64.9 °F 46.0 °F 50% 30.07 in 10.0 mi NNW 6.9 mph - N/A   Clear